User: anonymous   Login
Location: Dresden
(51.0300°N, 13.7800°E)
Time: 03:51:18
(UTC+02:00)
Language:

PCSat - Orbit

View from above orbital plane
View from above orbital plane
View from above satellite
View from above satellite

Ground track
Ground track

The orbit is defined by the following mean orbital elements,

1 26931U          26100.26895279 +.00000000 +00000-0 +96235-4 0 00000
2 26931  67.0508  59.9347 0006777 264.4977  95.5352 14.31929669    01
Epoch (UTC): 10 April 2026 06:27:17
Eccentricity: 0.0006777
inclination: 67.0508°
perigee height: 780 km
apogee height: 790 km
right ascension of ascending node: 59.9347°
argument of perigee: 264.4977°
revolutions per day: 14.31929669
mean anomaly at epoch: 95.5352°

The dashed part of the orbit path shows where the satellite is in the earth's shadow,  

DLR